Location: Central Falls
(41.8900°N, 71.3929°W)
Time: 14:47:51
(UTC+00:00)

Vanguard 1 - Pass Details

Date: 07 December 2023
Orbit: 653 x 3826 km, 34.3° (Epoch: 24 February)

Event Time Altitude Azimuth Distance (km) Brightness Sun altitude
Rises 02:13:23 0° 275° (W) 6,776 14.9 -54.4°
Reaches altitude 10° 02:17:24 10° 272° (W) 6,073 14.4 -55.1°
Enters shadow 02:33:55 57° 231° (SW) 4,191 12.9 -57.9°
Maximum altitude 02:37:57 62° 199° (SSW) 4,125 - -58.6°
Drops below altitude 10° 02:59:39 10° 125° (SE) 6,349 - -62.0°
Sets 03:04:00 0° 122° (ESE) 7,082 - -62.6°
